HB9SZU-7 Weather Reports


time (UTC)temp
C
wind
direction
speed
KPH
gust
KPH
rain 1hr
cm
rain 24hr
cm
rain mn
cm
humidity
%
barometer
mb
20260507214252 11 0.0 0.0 0.00 0.00 0.00 68 934.7
20260507212652 11 0.0 0.0 0.00 0.00 0.00 68 934.4
20260507211052 11 0.0 0.0 0.00 0.00 0.00 68 934.6
20260507205452 11 0.0 0.0 0.00 0.00 0.00 67 934.6
20260507203851 11 0.0 0.0 0.00 0.00 0.00 66 934.2
20260507202252 11 0.0 0.0 0.00 0.00 0.00 66 934.1
20260507200652 11 0.0 0.0 0.00 0.00 0.00 66 933.9
20260507195052 11 0.0 0.0 0.00 0.00 0.00 65 933.7
20260507193452 12 0.0 0.0 0.00 0.00 0.00 64 933.6
20260507191852 12 0.0 0.0 0.00 0.00 0.00 63 933.4
20260507190252 13 0.0 0.0 0.00 0.00 0.00 62 933.3
20260507184652 13 0.0 0.0 0.00 0.00 0.00 62 933.1
20260507183052 14 0.0 0.0 0.00 0.00 0.00 61 933.0
20260507181452 14 0.0 0.0 0.00 0.00 0.00 60 932.8
20260507175852 15 0.0 0.0 0.00 0.00 0.00 60 932.6
20260507174252 15 0.0 0.0 0.00 0.00 0.00 60 932.5
20260507172652 15 0.0 0.0 0.00 0.00 0.00 60 932.3
20260507171052 15 0.0 0.0 0.00 0.00 0.00 59 932.3
20260507165452 15 0.0 0.0 0.00 0.00 0.00 58 932.2
20260507163851 15 0.0 0.0 0.00 0.00 0.00 58 932.1
20260507162252 15 0.0 0.0 0.00 0.00 0.00 58 932.1
20260507160652 16 0.0 0.0 0.00 0.00 0.00 58 932.0
20260507155052 16 0.0 0.0 0.00 0.00 0.00 58 932.2
20260507153452 16 0.0 0.0 0.00 0.00 0.00 58 932.2
20260507151852 16 0.0 0.0 0.00 0.00 0.00 58 932.2
20260507150252 16 0.0 0.0 0.00 0.00 0.00 59 932.3
20260507144652 16 0.0 0.0 0.00 0.00 0.00 63 932.3
20260507143052 16 0.0 0.0 0.00 0.00 0.00 63 932.5
20260507141452 16 0.0 0.0 0.00 0.00 0.00 62 932.5
20260507135852 16 0.0 0.0 0.00 0.00 0.00 63 932.5
20260507134252 16 0.0 0.0 0.00 0.00 0.00 64 932.7
20260507132652 16 0.0 0.0 0.00 0.00 0.00 64 932.7
20260507131052 16 0.0 0.0 0.00 0.00 0.00 64 932.7
20260507125451 16 0.0 0.0 0.00 0.00 0.00 59 932.6
20260507123851 15 0.0 0.0 0.00 0.00 0.00 58 932.6
20260507122251 14 0.0 0.0 0.00 0.00 0.00 63 932.6
20260507120651 13 0.0 0.0 0.00 0.00 0.00 62 932.6
20260507115051 13 0.0 0.0 0.00 0.00 0.00 68 932.8
20260507113451 14 0.0 0.0 0.00 0.00 0.00 67 933.0
20260507111851 14 0.0 0.0 0.00 0.00 0.00 67 933.0
20260507110251 14 0.0 0.0 0.00 0.00 0.00 67 933.0
20260507104652 14 0.0 0.0 0.00 0.00 0.00 67 933.0
20260507103052 13 0.0 0.0 0.00 0.00 0.00 68 933.2
20260507101452 14 0.0 0.0 0.00 0.00 0.00 68 933.2
20260507095852 14 0.0 0.0 0.00 0.00 0.00 66 933.1
20260507094252 15 0.0 0.0 0.00 0.00 0.00 66 932.9
20260507092652 15 0.0 0.0 0.00 0.00 0.00 65 932.8
20260507091052 15 0.0 0.0 0.00 0.00 0.00 67 932.7
20260507085452 14 0.0 0.0 0.00 0.00 0.00 68 932.7
20260507083852 13 0.0 0.0 0.00 0.00 0.00 70 932.7
20260507082252 13 0.0 0.0 0.00 0.00 0.00 73 932.6
20260507080652 12 0.0 0.0 0.00 0.00 0.00 74 932.6
20260507075052 12 0.0 0.0 0.00 0.00 0.00 74 932.6
20260507073452 9 0.0 0.0 0.00 0.00 0.00 79 932.5
20260507071852 9 0.0 0.0 0.00 0.00 0.00 79 932.5
20260507070252 9 0.0 0.0 0.00 0.00 0.00 79 932.5
20260507064652 8 0.0 0.0 0.00 0.00 0.00 80 932.4
20260507063052 8 0.0 0.0 0.00 0.00 0.00 81 932.4
20260507061452 7 0.0 0.0 0.00 0.00 0.00 82 932.3
20260507055852 6 0.0 0.0 0.00 0.00 0.00 81 932.1
20260507052718 6 0.0 0.0 0.00 0.00 0.00 81 931.7
20260507051119 6 0.0 0.0 0.00 0.00 0.00 81 931.7
20260507045519 6 0.0 0.0 0.00 0.00 0.00 81 931.6
20260507043919 6 0.0 0.0 0.00 0.00 0.00 81 931.5
20260507042319 6 0.0 0.0 0.00 0.00 0.00 81 931.4
20260507040719 6 0.0 0.0 0.00 0.00 0.00 81 931.3
20260507035119 6 0.0 0.0 0.00 0.00 0.00 81 931.4
20260507033519 6 0.0 0.0 0.00 0.00 0.00 81 931.5
20260507031919 6 0.0 0.0 0.00 0.00 0.00 81 931.4
20260507030319 6 0.0 0.0 0.00 0.00 0.00 81 931.4
20260507024719 6 0.0 0.0 0.00 0.00 0.00 81 931.4
20260507023119 7 0.0 0.0 0.00 0.00 0.00 81 931.5
20260507021519 7 0.0 0.0 0.00 0.00 0.00 81 931.5
20260507015919 7 0.0 0.0 0.00 0.00 0.00 81 931.3
20260507014319 7 0.0 0.0 0.00 0.00 0.00 81 930.9
20260507012719 7 0.0 0.0 0.00 0.00 0.00 81 930.9
20260507011119 7 0.0 0.0 0.00 0.00 0.00 81 931.0
20260507005519 7 0.0 0.0 0.00 0.00 0.00 81 931.1
20260507003919 7 0.0 0.0 0.00 0.00 0.00 81 930.9
20260507002319 7 0.0 0.0 0.00 0.00 0.00 81 930.8
20260507000719 7 0.0 0.0 0.00 0.00 0.00 82 930.9
20260506235119 7 0.0 0.0 0.00 0.00 0.00 82 930.8
20260506233519 7 0.0 0.0 0.00 0.00 0.00 82 930.9
20260506231919 7 0.0 0.0 0.00 0.00 0.00 82 930.9
20260506230319 7 0.0 0.0 0.00 0.00 0.00 82 931.0
20260506224719 7 0.0 0.0 0.00 0.00 0.00 81 931.3
20260506223118 7 0.0 0.0 0.00 0.00 0.00 81 931.1
20260506221519 7 0.0 0.0 0.00 0.00 0.00 81 931.1
20260506215919 7 0.0 0.0 0.00 0.00 0.00 81 930.8
20260506214319 7 0.0 0.0 0.00 0.00 0.00 80 930.6